owner,sensor,date,latitude,longitude,vertical_datum,mass_concentration_of_oxygen_in_sea_water,qcFlag 
NERRS,ioos:station:NOAA.NERRS:rkblhwq:1,2019-11-05T14:45:00Z,26.0257,-81.7332,1.51,3.8,11111222 
NERRS,ioos:station:NOAA.NERRS:rkblhwq:1,2019-11-05T15:45:00Z,26.0257,-81.7332,1.43,3.9,11111222 
NERRS,ioos:station:NOAA.NERRS:rkblhwq:1,2019-11-05T16:45:00Z,26.0257,-81.7332,1.34,4.4,11111222 
NERRS,ioos:station:NOAA.NERRS:rkblhwq:1,2019-11-05T17:45:00Z,26.0257,-81.7332,1.24,4.4,11111222 
NERRS,ioos:station:NOAA.NERRS:rkblhwq:1,2019-11-05T18:45:00Z,26.0257,-81.7332,1.15,4.4,11111222 
NERRS,ioos:station:NOAA.NERRS:rkblhwq:1,2019-11-05T19:45:00Z,26.0257,-81.7332,1.1,4.9,11111222 
NERRS,ioos:station:NOAA.NERRS:rkblhwq:1,2019-11-05T20:45:00Z,26.0257,-81.7332,1.13,5.1,11111222 
NERRS,ioos:station:NOAA.NERRS:rkblhwq:1,2019-11-05T21:45:00Z,26.0257,-81.7332,1.21,5.6,11111222 
NERRS,ioos:station:NOAA.NERRS:rkblhwq:1,2019-11-05T22:45:00Z,26.0257,-81.7332,1.31,5.5,11111222 
NERRS,ioos:station:NOAA.NERRS:rkblhwq:1,2019-11-05T23:45:00Z,26.0257,-81.7332,1.42,5.3,11111222 
NERRS,ioos:station:NOAA.NERRS:rkblhwq:1,2019-11-06T00:45:00Z,26.0257,-81.7332,1.53,5.8,11111222 
NERRS,ioos:station:NOAA.NERRS:rkblhwq:1,2019-11-06T01:45:00Z,26.0257,-81.7332,1.59,5.1,11111222 
NERRS,ioos:station:NOAA.NERRS:rkblhwq:1,2019-11-06T02:45:00Z,26.0257,-81.7332,1.61,4.6,11111222 
NERRS,ioos:station:NOAA.NERRS:rkblhwq:1,2019-11-06T03:45:00Z,26.0257,-81.7332,1.6,2.5,11111222 
NERRS,ioos:station:NOAA.NERRS:rkblhwq:1,2019-11-06T04:45:00Z,26.0257,-81.7332,1.5,4.7,11111222 
NERRS,ioos:station:NOAA.NERRS:rkblhwq:1,2019-11-06T05:45:00Z,26.0257,-81.7332,1.4,4.4,11111222 
NERRS,ioos:station:NOAA.NERRS:rkblhwq:1,2019-11-06T06:45:00Z,26.0257,-81.7332,1.29,3.9,11111222 
NERRS,ioos:station:NOAA.NERRS:rkblhwq:1,2019-11-06T07:45:00Z,26.0257,-81.7332,1.2,4.0,11111222 
NERRS,ioos:station:NOAA.NERRS:rkblhwq:1,2019-11-06T08:45:00Z,26.0257,-81.7332,1.19,4.1,11111222 
NERRS,ioos:station:NOAA.NERRS:rkblhwq:1,2019-11-06T09:45:00Z,26.0257,-81.7332,1.25,4.0,11111222 
NERRS,ioos:station:NOAA.NERRS:rkblhwq:1,2019-11-06T10:45:00Z,26.0257,-81.7332,1.34,4.2,11111222 
NERRS,ioos:station:NOAA.NERRS:rkblhwq:1,2019-11-06T11:45:00Z,26.0257,-81.7332,1.42,4.4,11111222 
NERRS,ioos:station:NOAA.NERRS:rkblhwq:1,2019-11-06T12:45:00Z,26.0257,-81.7332,1.49,4.0,11111222 
NERRS,ioos:station:NOAA.NERRS:rkblhwq:1,2019-11-06T13:45:00Z,26.0257,-81.7332,1.51,4.3,11111222 
NERRS,ioos:station:NOAA.NERRS:rkblhwq:1,2019-11-06T14:45:00Z,26.0257,-81.7332,1.47,4.3,11111222 
NERRS,ioos:station:NOAA.NERRS:rkblhwq:1,2019-11-06T15:45:00Z,26.0257,-81.7332,1.41,4.7,11111222 
NERRS,ioos:station:NOAA.NERRS:rkblhwq:1,2019-11-06T16:45:00Z,26.0257,-81.7332,1.31,5.0,11111222 
NERRS,ioos:station:NOAA.NERRS:rkblhwq:1,2019-11-06T17:45:00Z,26.0257,-81.7332,1.19,4.9,11111222 
NERRS,ioos:station:NOAA.NERRS:rkblhwq:1,2019-11-06T18:45:00Z,26.0257,-81.7332,1.08,5.4,11111222 
NERRS,ioos:station:NOAA.NERRS:rkblhwq:1,2019-11-06T19:45:00Z,26.0257,-81.7332,0.99,5.4,11111222 
NERRS,ioos:station:NOAA.NERRS:rkblhwq:1,2019-11-06T20:45:00Z,26.0257,-81.7332,0.93,5.8,11111222 
NERRS,ioos:station:NOAA.NERRS:rkblhwq:1,2019-11-06T21:45:00Z,26.0257,-81.7332,0.99,5.9,11111222 
NERRS,ioos:station:NOAA.NERRS:rkblhwq:1,2019-11-06T22:45:00Z,26.0257,-81.7332,1.1,6.0,11111222 
NERRS,ioos:station:NOAA.NERRS:rkblhwq:1,2019-11-06T23:45:00Z,26.0257,-81.7332,1.22,5.8,11111222 
NERRS,ioos:station:NOAA.NERRS:rkblhwq:1,2019-11-07T00:45:00Z,26.0257,-81.7332,1.34,5.8,11111222 
NERRS,ioos:station:NOAA.NERRS:rkblhwq:1,2019-11-07T01:45:00Z,26.0257,-81.7332,1.44,5.7,11111222 
NERRS,ioos:station:NOAA.NERRS:rkblhwq:1,2019-11-07T02:45:00Z,26.0257,-81.7332,1.51,5.5,11111222 
NERRS,ioos:station:NOAA.NERRS:rkblhwq:1,2019-11-07T03:45:00Z,26.0257,-81.7332,1.53,5.3,11111222 
NERRS,ioos:station:NOAA.NERRS:rkblhwq:1,2019-11-07T04:45:00Z,26.0257,-81.7332,1.45,5.5,11111222 
NERRS,ioos:station:NOAA.NERRS:rkblhwq:1,2019-11-07T05:45:00Z,26.0257,-81.7332,1.35,5.5,11111222 
NERRS,ioos:station:NOAA.NERRS:rkblhwq:1,2019-11-07T06:45:00Z,26.0257,-81.7332,1.23,4.8,11111222 
NERRS,ioos:station:NOAA.NERRS:rkblhwq:1,2019-11-07T07:45:00Z,26.0257,-81.7332,1.13,4.9,11111222 
NERRS,ioos:station:NOAA.NERRS:rkblhwq:1,2019-11-07T08:45:00Z,26.0257,-81.7332,1.05,4.6,11111222 
NERRS,ioos:station:NOAA.NERRS:rkblhwq:1,2019-11-07T09:45:00Z,26.0257,-81.7332,1.05,4.7,11111222 
NERRS,ioos:station:NOAA.NERRS:rkblhwq:1,2019-11-07T10:45:00Z,26.0257,-81.7332,1.14,4.5,11111222 
NERRS,ioos:station:NOAA.NERRS:rkblhwq:1,2019-11-07T11:45:00Z,26.0257,-81.7332,1.26,4.6,11111222 
NERRS,ioos:station:NOAA.NERRS:rkblhwq:1,2019-11-07T12:45:00Z,26.0257,-81.7332,1.38,4.6,11111222 
NERRS,ioos:station:NOAA.NERRS:rkblhwq:1,2019-11-07T13:45:00Z,26.0257,-81.7332,1.48,4.6,11111222 
NERRS,ioos:station:NOAA.NERRS:rkblhwq:1,2019-11-07T14:45:00Z,26.0257,-81.7332,1.55,4.6,11111222 
NERRS,ioos:station:NOAA.NERRS:rkblhwq:1,2019-11-07T15:45:00Z,26.0257,-81.7332,1.53,5.0,11111222 
NERRS,ioos:station:NOAA.NERRS:rkblhwq:1,2019-11-07T16:45:00Z,26.0257,-81.7332,1.44,5.6,11111222 
NERRS,ioos:station:NOAA.NERRS:rkblhwq:1,2019-11-07T17:45:00Z,26.0257,-81.7332,1.32,5.4,11111222 
NERRS,ioos:station:NOAA.NERRS:rkblhwq:1,2019-11-07T18:45:00Z,26.0257,-81.7332,1.21,5.5,11111222 
NERRS,ioos:station:NOAA.NERRS:rkblhwq:1,2019-11-07T19:45:00Z,26.0257,-81.7332,1.1,5.9,11111222 
NERRS,ioos:station:NOAA.NERRS:rkblhwq:1,2019-11-07T20:45:00Z,26.0257,-81.7332,1.01,6.0,11111222 
NERRS,ioos:station:NOAA.NERRS:rkblhwq:1,2019-11-07T21:45:00Z,26.0257,-81.7332,0.98,5.9,11111222 
NERRS,ioos:station:NOAA.NERRS:rkblhwq:1,2019-11-07T22:45:00Z,26.0257,-81.7332,1.06,5.9,11111222 
NERRS,ioos:station:NOAA.NERRS:rkblhwq:1,2019-11-07T23:45:00Z,26.0257,-81.7332,1.18,6.2,11111222 
NERRS,ioos:station:NOAA.NERRS:rkblhwq:1,2019-11-08T00:45:00Z,26.0257,-81.7332,1.3,5.9,11111222 
NERRS,ioos:station:NOAA.NERRS:rkblhwq:1,2019-11-08T01:45:00Z,26.0257,-81.7332,1.43,5.8,11111222 
NERRS,ioos:station:NOAA.NERRS:rkblhwq:1,2019-11-08T02:45:00Z,26.0257,-81.7332,1.55,5.6,11111222 
NERRS,ioos:station:NOAA.NERRS:rkblhwq:1,2019-11-08T03:45:00Z,26.0257,-81.7332,1.61,5.6,11111222 
NERRS,ioos:station:NOAA.NERRS:rkblhwq:1,2019-11-08T04:45:00Z,26.0257,-81.7332,1.59,5.3,11111222 
NERRS,ioos:station:NOAA.NERRS:rkblhwq:1,2019-11-08T05:45:00Z,26.0257,-81.7332,1.49,5.3,11111222 
NERRS,ioos:station:NOAA.NERRS:rkblhwq:1,2019-11-08T06:45:00Z,26.0257,-81.7332,1.36,5.2,11111222 
NERRS,ioos:station:NOAA.NERRS:rkblhwq:1,2019-11-08T07:45:00Z,26.0257,-81.7332,1.24,4.9,11111222 
NERRS,ioos:station:NOAA.NERRS:rkblhwq:1,2019-11-08T08:45:00Z,26.0257,-81.7332,1.12,4.6,11111222 
NERRS,ioos:station:NOAA.NERRS:rkblhwq:1,2019-11-08T09:45:00Z,26.0257,-81.7332,1.03,4.6,11111222 
NERRS,ioos:station:NOAA.NERRS:rkblhwq:1,2019-11-08T10:45:00Z,26.0257,-81.7332,1.05,4.4,11111222 
NERRS,ioos:station:NOAA.NERRS:rkblhwq:1,2019-11-08T11:45:00Z,26.0257,-81.7332,1.18,4.6,11111222 
NERRS,ioos:station:NOAA.NERRS:rkblhwq:1,2019-11-08T12:45:00Z,26.0257,-81.7332,1.32,4.5,11111222 
NERRS,ioos:station:NOAA.NERRS:rkblhwq:1,2019-11-08T13:45:00Z,26.0257,-81.7332,1.46,4.6,11111222 
NERRS,ioos:station:NOAA.NERRS:rkblhwq:1,2019-11-08T14:45:00Z,26.0257,-81.7332,1.57,4.7,11111222 
NERRS,ioos:station:NOAA.NERRS:rkblhwq:1,2019-11-08T15:45:00Z,26.0257,-81.7332,1.63,4.9,11111222 
NERRS,ioos:station:NOAA.NERRS:rkblhwq:1,2019-11-08T16:45:00Z,26.0257,-81.7332,1.64,4.9,11111222 
NERRS,ioos:station:NOAA.NERRS:rkblhwq:1,2019-11-08T17:45:00Z,26.0257,-81.7332,1.55,5.1,11111222 
NERRS,ioos:station:NOAA.NERRS:rkblhwq:1,2019-11-08T18:45:00Z,26.0257,-81.7332,1.44,5.3,11111222 
NERRS,ioos:station:NOAA.NERRS:rkblhwq:1,2019-11-08T19:45:00Z,26.0257,-81.7332,1.32,5.4,11111222 
NERRS,ioos:station:NOAA.NERRS:rkblhwq:1,2019-11-08T20:45:00Z,26.0257,-81.7332,1.19,5.8,11111222 
NERRS,ioos:station:NOAA.NERRS:rkblhwq:1,2019-11-08T21:45:00Z,26.0257,-81.7332,1.1,5.5,11111222 
NERRS,ioos:station:NOAA.NERRS:rkblhwq:1,2019-11-08T22:45:00Z,26.0257,-81.7332,1.07,5.4,11111222 
NERRS,ioos:station:NOAA.NERRS:rkblhwq:1,2019-11-08T23:45:00Z,26.0257,-81.7332,1.17,5.9,11111222 
NERRS,ioos:station:NOAA.NERRS:rkblhwq:1,2019-11-09T00:45:00Z,26.0257,-81.7332,1.3,5.7,11111222 
NERRS,ioos:station:NOAA.NERRS:rkblhwq:1,2019-11-09T01:45:00Z,26.0257,-81.7332,1.43,5.5,11111222 
NERRS,ioos:station:NOAA.NERRS:rkblhwq:1,2019-11-09T02:45:00Z,26.0257,-81.7332,1.53,5.4,11111222 
NERRS,ioos:station:NOAA.NERRS:rkblhwq:1,2019-11-09T03:45:00Z,26.0257,-81.7332,1.6,5.4,11111222 
NERRS,ioos:station:NOAA.NERRS:rkblhwq:1,2019-11-09T04:45:00Z,26.0257,-81.7332,1.61,5.1,11111222 
NERRS,ioos:station:NOAA.NERRS:rkblhwq:1,2019-11-09T05:45:00Z,26.0257,-81.7332,1.54,5.3,11111222 
NERRS,ioos:station:NOAA.NERRS:rkblhwq:1,2019-11-09T06:45:00Z,26.0257,-81.7332,1.43,5.2,11111222 
NERRS,ioos:station:NOAA.NERRS:rkblhwq:1,2019-11-09T07:45:00Z,26.0257,-81.7332,1.29,5.0,11111222 
NERRS,ioos:station:NOAA.NERRS:rkblhwq:1,2019-11-09T08:45:00Z,26.0257,-81.7332,1.16,5.0,11111222 
NERRS,ioos:station:NOAA.NERRS:rkblhwq:1,2019-11-09T09:45:00Z,26.0257,-81.7332,1.04,4.1,11111222 
NERRS,ioos:station:NOAA.NERRS:rkblhwq:1,2019-11-09T10:45:00Z,26.0257,-81.7332,0.94,4.6,11111222 
NERRS,ioos:station:NOAA.NERRS:rkblhwq:1,2019-11-09T11:45:00Z,26.0257,-81.7332,0.96,4.4,11111222 
NERRS,ioos:station:NOAA.NERRS:rkblhwq:1,2019-11-09T12:45:00Z,26.0257,-81.7332,1.08,4.6,11111222 
NERRS,ioos:station:NOAA.NERRS:rkblhwq:1,2019-11-09T13:45:00Z,26.0257,-81.7332,1.2,5.0,11111222 
NERRS,ioos:station:NOAA.NERRS:rkblhwq:1,2019-11-09T14:45:00Z,26.0257,-81.7332,1.32,5.0,11111222 
NERRS,ioos:station:NOAA.NERRS:rkblhwq:1,2019-11-09T15:45:00Z,26.0257,-81.7332,1.4,5.1,11111222 
NERRS,ioos:station:NOAA.NERRS:rkblhwq:1,2019-11-09T16:45:00Z,26.0257,-81.7332,1.46,5.2,11111222 
NERRS,ioos:station:NOAA.NERRS:rkblhwq:1,2019-11-09T17:45:00Z,26.0257,-81.7332,1.42,5.5,11111222 
NERRS,ioos:station:NOAA.NERRS:rkblhwq:1,2019-11-09T18:45:00Z,26.0257,-81.7332,1.29,5.7,11111222 
NERRS,ioos:station:NOAA.NERRS:rkblhwq:1,2019-11-09T19:45:00Z,26.0257,-81.7332,1.16,5.7,11111222 
NERRS,ioos:station:NOAA.NERRS:rkblhwq:1,2019-11-09T20:45:00Z,26.0257,-81.7332,1.05,6.1,11111222 
NERRS,ioos:station:NOAA.NERRS:rkblhwq:1,2019-11-09T21:45:00Z,26.0257,-81.7332,0.98,5.9,11111222 
NERRS,ioos:station:NOAA.NERRS:rkblhwq:1,2019-11-09T22:45:00Z,26.0257,-81.7332,0.95,6.3,11111222 
NERRS,ioos:station:NOAA.NERRS:rkblhwq:1,2019-11-09T23:45:00Z,26.0257,-81.7332,1.02,5.7,11111222 
NERRS,ioos:station:NOAA.NERRS:rkblhwq:1,2019-11-10T00:45:00Z,26.0257,-81.7332,1.13,5.7,11111222 
NERRS,ioos:station:NOAA.NERRS:rkblhwq:1,2019-11-10T01:45:00Z,26.0257,-81.7332,1.28,5.5,11111222 
NERRS,ioos:station:NOAA.NERRS:rkblhwq:1,2019-11-10T02:45:00Z,26.0257,-81.7332,1.42,5.4,11111222 
NERRS,ioos:station:NOAA.NERRS:rkblhwq:1,2019-11-10T03:45:00Z,26.0257,-81.7332,1.54,5.4,11111222 
NERRS,ioos:station:NOAA.NERRS:rkblhwq:1,2019-11-10T04:45:00Z,26.0257,-81.7332,1.62,5.4,11111222 
NERRS,ioos:station:NOAA.NERRS:rkblhwq:1,2019-11-10T05:45:00Z,26.0257,-81.7332,1.59,5.2,11111222 
NERRS,ioos:station:NOAA.NERRS:rkblhwq:1,2019-11-10T06:45:00Z,26.0257,-81.7332,1.48,5.4,11111222 
NERRS,ioos:station:NOAA.NERRS:rkblhwq:1,2019-11-10T07:45:00Z,26.0257,-81.7332,1.34,4.8,11111222 
NERRS,ioos:station:NOAA.NERRS:rkblhwq:1,2019-11-10T08:45:00Z,26.0257,-81.7332,1.19,4.9,11111222 
NERRS,ioos:station:NOAA.NERRS:rkblhwq:1,2019-11-10T09:45:00Z,26.0257,-81.7332,1.06,4.9,11111222 
NERRS,ioos:station:NOAA.NERRS:rkblhwq:1,2019-11-10T10:45:00Z,26.0257,-81.7332,0.95,4.5,11111222 
NERRS,ioos:station:NOAA.NERRS:rkblhwq:1,2019-11-10T11:45:00Z,26.0257,-81.7332,0.94,5.0,11111222 
NERRS,ioos:station:NOAA.NERRS:rkblhwq:1,2019-11-10T12:45:00Z,26.0257,-81.7332,1.04,4.8,11111222 
NERRS,ioos:station:NOAA.NERRS:rkblhwq:1,2019-11-10T13:45:00Z,26.0257,-81.7332,1.19,5.0,11111222 
NERRS,ioos:station:NOAA.NERRS:rkblhwq:1,2019-11-10T14:45:00Z,26.0257,-81.7332,1.33,5.2,11111222 
NERRS,ioos:station:NOAA.NERRS:rkblhwq:1,2019-11-10T15:45:00Z,26.0257,-81.7332,1.47,5.5,11111222 
NERRS,ioos:station:NOAA.NERRS:rkblhwq:1,2019-11-10T16:45:00Z,26.0257,-81.7332,1.56,5.7,11111222 
NERRS,ioos:station:NOAA.NERRS:rkblhwq:1,2019-11-10T17:45:00Z,26.0257,-81.7332,1.59,5.7,11111222 
NERRS,ioos:station:NOAA.NERRS:rkblhwq:1,2019-11-10T18:45:00Z,26.0257,-81.7332,1.51,6.2,11111222 
NERRS,ioos:station:NOAA.NERRS:rkblhwq:1,2019-11-10T19:45:00Z,26.0257,-81.7332,1.41,6.6,11111222 
NERRS,ioos:station:NOAA.NERRS:rkblhwq:1,2019-11-10T20:45:00Z,26.0257,-81.7332,1.3,6.5,11111222 
NERRS,ioos:station:NOAA.NERRS:rkblhwq:1,2019-11-10T21:45:00Z,26.0257,-81.7332,1.21,6.4,11111222 
NERRS,ioos:station:NOAA.NERRS:rkblhwq:1,2019-11-10T22:45:00Z,26.0257,-81.7332,1.13,6.3,11111222 
NERRS,ioos:station:NOAA.NERRS:rkblhwq:1,2019-11-10T23:45:00Z,26.0257,-81.7332,1.15,6.2,11111222 
NERRS,ioos:station:NOAA.NERRS:rkblhwq:1,2019-11-11T00:45:00Z,26.0257,-81.7332,1.25,6.2,11111222 
NERRS,ioos:station:NOAA.NERRS:rkblhwq:1,2019-11-11T01:45:00Z,26.0257,-81.7332,1.37,6.1,11111222 
NERRS,ioos:station:NOAA.NERRS:rkblhwq:1,2019-11-11T02:45:00Z,26.0257,-81.7332,1.5,5.9,11111222 
NERRS,ioos:station:NOAA.NERRS:rkblhwq:1,2019-11-11T03:45:00Z,26.0257,-81.7332,1.61,5.8,11111222 
NERRS,ioos:station:NOAA.NERRS:rkblhwq:1,2019-11-11T04:45:00Z,26.0257,-81.7332,1.68,5.8,11111222 
NERRS,ioos:station:NOAA.NERRS:rkblhwq:1,2019-11-11T05:45:00Z,26.0257,-81.7332,1.68,5.4,11111222 
NERRS,ioos:station:NOAA.NERRS:rkblhwq:1,2019-11-11T06:45:00Z,26.0257,-81.7332,1.58,5.9,11111222 
NERRS,ioos:station:NOAA.NERRS:rkblhwq:1,2019-11-11T07:45:00Z,26.0257,-81.7332,1.45,5.5,11111222 
NERRS,ioos:station:NOAA.NERRS:rkblhwq:1,2019-11-11T08:45:00Z,26.0257,-81.7332,1.29,5.3,11111222 
NERRS,ioos:station:NOAA.NERRS:rkblhwq:1,2019-11-11T09:45:00Z,26.0257,-81.7332,1.15,5.1,11111222 
NERRS,ioos:station:NOAA.NERRS:rkblhwq:1,2019-11-11T10:45:00Z,26.0257,-81.7332,1.03,5.0,11111222 
NERRS,ioos:station:NOAA.NERRS:rkblhwq:1,2019-11-11T11:45:00Z,26.0257,-81.7332,0.96,4.7,11111222 
NERRS,ioos:station:NOAA.NERRS:rkblhwq:1,2019-11-11T12:45:00Z,26.0257,-81.7332,1.02,5.1,11111222 
NERRS,ioos:station:NOAA.NERRS:rkblhwq:1,2019-11-11T13:45:00Z,26.0257,-81.7332,1.15,5.2,11111222 
NERRS,ioos:station:NOAA.NERRS:rkblhwq:1,2019-11-11T14:45:00Z,26.0257,-81.7332,1.31,5.4,11111222 
NERRS,ioos:station:NOAA.NERRS:rkblhwq:1,2019-11-11T15:45:00Z,26.0257,-81.7332,1.45,5.6,11111222 
NERRS,ioos:station:NOAA.NERRS:rkblhwq:1,2019-11-11T16:45:00Z,26.0257,-81.7332,1.57,5.8,11111222 
NERRS,ioos:station:NOAA.NERRS:rkblhwq:1,2019-11-11T17:45:00Z,26.0257,-81.7332,1.65,5.9,11111222 
NERRS,ioos:station:NOAA.NERRS:rkblhwq:1,2019-11-11T18:45:00Z,26.0257,-81.7332,1.66,5.8,11111222 
NERRS,ioos:station:NOAA.NERRS:rkblhwq:1,2019-11-11T19:45:00Z,26.0257,-81.7332,1.6,6.1,11111222 
NERRS,ioos:station:NOAA.NERRS:rkblhwq:1,2019-11-11T20:45:00Z,26.0257,-81.7332,1.52,6.4,11111222 
NERRS,ioos:station:NOAA.NERRS:rkblhwq:1,2019-11-11T21:45:00Z,26.0257,-81.7332,1.42,6.2,11111222 
NERRS,ioos:station:NOAA.NERRS:rkblhwq:1,2019-11-11T22:45:00Z,26.0257,-81.7332,1.32,6.0,11111222 
NERRS,ioos:station:NOAA.NERRS:rkblhwq:1,2019-11-11T23:45:00Z,26.0257,-81.7332,1.26,6.1,11111222 
NERRS,ioos:station:NOAA.NERRS:rkblhwq:1,2019-11-12T00:45:00Z,26.0257,-81.7332,1.34,5.9,11111222 
NERRS,ioos:station:NOAA.NERRS:rkblhwq:1,2019-11-12T01:45:00Z,26.0257,-81.7332,1.47,6.0,11111222 
NERRS,ioos:station:NOAA.NERRS:rkblhwq:1,2019-11-12T02:45:00Z,26.0257,-81.7332,1.61,5.7,11111222 
NERRS,ioos:station:NOAA.NERRS:rkblhwq:1,2019-11-12T03:45:00Z,26.0257,-81.7332,1.71,5.6,11111222 
NERRS,ioos:station:NOAA.NERRS:rkblhwq:1,2019-11-12T04:45:00Z,26.0257,-81.7332,1.78,5.7,11111222 
NERRS,ioos:station:NOAA.NERRS:rkblhwq:1,2019-11-12T05:45:00Z,26.0257,-81.7332,1.81,5.8,11111222 
NERRS,ioos:station:NOAA.NERRS:rkblhwq:1,2019-11-12T06:45:00Z,26.0257,-81.7332,1.75,5.4,11111222 
NERRS,ioos:station:NOAA.NERRS:rkblhwq:1,2019-11-12T07:45:00Z,26.0257,-81.7332,1.64,5.5,11111222 
NERRS,ioos:station:NOAA.NERRS:rkblhwq:1,2019-11-12T08:45:00Z,26.0257,-81.7332,1.52,5.4,11111222 
NERRS,ioos:station:NOAA.NERRS:rkblhwq:1,2019-11-12T09:45:00Z,26.0257,-81.7332,1.36,5.4,11111222 
NERRS,ioos:station:NOAA.NERRS:rkblhwq:1,2019-11-12T10:45:00Z,26.0257,-81.7332,1.2,5.0,11111222 
NERRS,ioos:station:NOAA.NERRS:rkblhwq:1,2019-11-12T11:45:00Z,26.0257,-81.7332,1.06,4.7,11111222 
NERRS,ioos:station:NOAA.NERRS:rkblhwq:1,2019-11-12T12:45:00Z,26.0257,-81.7332,1.0,4.3,11111222 
NERRS,ioos:station:NOAA.NERRS:rkblhwq:1,2019-11-12T13:45:00Z,26.0257,-81.7332,1.11,4.8,11111222 
NERRS,ioos:station:NOAA.NERRS:rkblhwq:1,2019-11-12T14:45:00Z,26.0257,-81.7332,1.27,4.8,11111222 
NERRS,ioos:station:NOAA.NERRS:rkblhwq:1,2019-11-12T15:45:00Z,26.0257,-81.7332,1.44,5.2,11111222 
NERRS,ioos:station:NOAA.NERRS:rkblhwq:1,2019-11-12T16:45:00Z,26.0257,-81.7332,1.6,5.4,11111222 
NERRS,ioos:station:NOAA.NERRS:rkblhwq:1,2019-11-12T17:45:00Z,26.0257,-81.7332,1.68,5.6,11111222 
NERRS,ioos:station:NOAA.NERRS:rkblhwq:1,2019-11-12T18:45:00Z,26.0257,-81.7332,1.71,5.7,11111222 
NERRS,ioos:station:NOAA.NERRS:rkblhwq:1,2019-11-12T19:45:00Z,26.0257,-81.7332,1.7,5.6,11111222 
NERRS,ioos:station:NOAA.NERRS:rkblhwq:1,2019-11-12T20:45:00Z,26.0257,-81.7332,1.62,5.6,11111222 
NERRS,ioos:station:NOAA.NERRS:rkblhwq:1,2019-11-12T21:45:00Z,26.0257,-81.7332,1.53,5.8,11111222 
NERRS,ioos:station:NOAA.NERRS:rkblhwq:1,2019-11-12T22:45:00Z,26.0257,-81.7332,1.42,5.9,11111222 
NERRS,ioos:station:NOAA.NERRS:rkblhwq:1,2019-11-12T23:45:00Z,26.0257,-81.7332,1.32,5.8,11111222 
NERRS,ioos:station:NOAA.NERRS:rkblhwq:1,2019-11-13T00:45:00Z,26.0257,-81.7332,1.3,5.3,11111222 
NERRS,ioos:station:NOAA.NERRS:rkblhwq:1,2019-11-13T01:45:00Z,26.0257,-81.7332,1.4,5.4,11111222 
NERRS,ioos:station:NOAA.NERRS:rkblhwq:1,2019-11-13T02:45:00Z,26.0257,-81.7332,1.54,5.6,11111222 
NERRS,ioos:station:NOAA.NERRS:rkblhwq:1,2019-11-13T03:45:00Z,26.0257,-81.7332,1.66,5.4,11111222 
NERRS,ioos:station:NOAA.NERRS:rkblhwq:1,2019-11-13T04:45:00Z,26.0257,-81.7332,1.74,5.4,11111222 
NERRS,ioos:station:NOAA.NERRS:rkblhwq:1,2019-11-13T05:45:00Z,26.0257,-81.7332,1.81,5.6,11111222 
NERRS,ioos:station:NOAA.NERRS:rkblhwq:1,2019-11-13T06:45:00Z,26.0257,-81.7332,1.83,5.6,11111222 
NERRS,ioos:station:NOAA.NERRS:rkblhwq:1,2019-11-13T07:45:00Z,26.0257,-81.7332,1.76,5.1,11111222 
NERRS,ioos:station:NOAA.NERRS:rkblhwq:1,2019-11-13T08:45:00Z,26.0257,-81.7332,1.65,5.3,11111222 
NERRS,ioos:station:NOAA.NERRS:rkblhwq:1,2019-11-13T09:45:00Z,26.0257,-81.7332,1.51,5.1,11111222 
NERRS,ioos:station:NOAA.NERRS:rkblhwq:1,2019-11-13T10:45:00Z,26.0257,-81.7332,1.34,4.8,11111222 
NERRS,ioos:station:NOAA.NERRS:rkblhwq:1,2019-11-13T11:45:00Z,26.0257,-81.7332,1.16,3.9,11111222 
NERRS,ioos:station:NOAA.NERRS:rkblhwq:1,2019-11-13T12:45:00Z,26.0257,-81.7332,1.02,4.1,11111222 
NERRS,ioos:station:NOAA.NERRS:rkblhwq:1,2019-11-13T13:45:00Z,26.0257,-81.7332,0.95,4.3,11111222 
NERRS,ioos:station:NOAA.NERRS:rkblhwq:1,2019-11-13T14:45:00Z,26.0257,-81.7332,1.01,4.7,11111222 
NERRS,ioos:station:NOAA.NERRS:rkblhwq:1,2019-11-13T15:45:00Z,26.0257,-81.7332,1.16,5.1,11111222 
NERRS,ioos:station:NOAA.NERRS:rkblhwq:1,2019-11-13T16:45:00Z,26.0257,-81.7332,1.31,5.4,11111222 
NERRS,ioos:station:NOAA.NERRS:rkblhwq:1,2019-11-13T17:45:00Z,26.0257,-81.7332,1.46,5.6,11111222 
NERRS,ioos:station:NOAA.NERRS:rkblhwq:1,2019-11-13T18:45:00Z,26.0257,-81.7332,1.58,5.9,11111222 
NERRS,ioos:station:NOAA.NERRS:rkblhwq:1,2019-11-13T19:45:00Z,26.0257,-81.7332,1.64,5.9,11111222 
NERRS,ioos:station:NOAA.NERRS:rkblhwq:1,2019-11-13T20:45:00Z,26.0257,-81.7332,1.58,6.0,11111222 
NERRS,ioos:station:NOAA.NERRS:rkblhwq:1,2019-11-13T21:45:00Z,26.0257,-81.7332,1.48,6.3,11111222 
NERRS,ioos:station:NOAA.NERRS:rkblhwq:1,2019-11-13T22:45:00Z,26.0257,-81.7332,1.38,6.1,11111222 
NERRS,ioos:station:NOAA.NERRS:rkblhwq:1,2019-11-13T23:45:00Z,26.0257,-81.7332,1.29,5.6,11111222 
NERRS,ioos:station:NOAA.NERRS:rkblhwq:1,2019-11-14T00:45:00Z,26.0257,-81.7332,1.23,5.4,11111222 
NERRS,ioos:station:NOAA.NERRS:rkblhwq:1,2019-11-14T01:45:00Z,26.0257,-81.7332,1.28,5.7,11111222 
NERRS,ioos:station:NOAA.NERRS:rkblhwq:1,2019-11-14T02:45:00Z,26.0257,-81.7332,1.39,5.5,11111222 
NERRS,ioos:station:NOAA.NERRS:rkblhwq:1,2019-11-14T03:45:00Z,26.0257,-81.7332,1.51,5.6,11111222 
NERRS,ioos:station:NOAA.NERRS:rkblhwq:1,2019-11-14T04:45:00Z,26.0257,-81.7332,1.63,5.5,11111222 
NERRS,ioos:station:NOAA.NERRS:rkblhwq:1,2019-11-14T05:45:00Z,26.0257,-81.7332,1.71,5.4,11111222 
NERRS,ioos:station:NOAA.NERRS:rkblhwq:1,2019-11-14T06:45:00Z,26.0257,-81.7332,1.75,5.3,11111222 
NERRS,ioos:station:NOAA.NERRS:rkblhwq:1,2019-11-14T07:45:00Z,26.0257,-81.7332,1.7,5.2,11111222 
NERRS,ioos:station:NOAA.NERRS:rkblhwq:1,2019-11-14T08:45:00Z,26.0257,-81.7332,1.6,5.6,11111222 
NERRS,ioos:station:NOAA.NERRS:rkblhwq:1,2019-11-14T09:45:00Z,26.0257,-81.7332,1.46,5.6,11111222 
NERRS,ioos:station:NOAA.NERRS:rkblhwq:1,2019-11-14T10:45:00Z,26.0257,-81.7332,1.3,4.8,11111222 
NERRS,ioos:station:NOAA.NERRS:rkblhwq:1,2019-11-14T11:45:00Z,26.0257,-81.7332,1.14,4.7,11111222 
NERRS,ioos:station:NOAA.NERRS:rkblhwq:1,2019-11-14T12:45:00Z,26.0257,-81.7332,1.01,4.4,11111222 
NERRS,ioos:station:NOAA.NERRS:rkblhwq:1,2019-11-14T13:45:00Z,26.0257,-81.7332,0.91,4.9,11111222 
NERRS,ioos:station:NOAA.NERRS:rkblhwq:1,2019-11-14T14:45:00Z,26.0257,-81.7332,0.94,5.3,11111222 
NERRS,ioos:station:NOAA.NERRS:rkblhwq:1,2019-11-14T15:45:00Z,26.0257,-81.7332,1.08,5.6,11111222 
NERRS,ioos:station:NOAA.NERRS:rkblhwq:1,2019-11-14T16:45:00Z,26.0257,-81.7332,1.25,5.7,11111222 
NERRS,ioos:station:NOAA.NERRS:rkblhwq:1,2019-11-14T17:45:00Z,26.0257,-81.7332,1.41,5.9,11111222 
NERRS,ioos:station:NOAA.NERRS:rkblhwq:1,2019-11-14T18:45:00Z,26.0257,-81.7332,1.56,6.1,11111222 
NERRS,ioos:station:NOAA.NERRS:rkblhwq:1,2019-11-14T20:45:00Z,26.0257,-81.7332,1.67,5.7,11111222 
NERRS,ioos:station:NOAA.NERRS:rkblhwq:1,2019-11-14T21:45:00Z,26.0257,-81.7332,1.62,6.0,11111222 
NERRS,ioos:station:NOAA.NERRS:rkblhwq:1,2019-11-14T22:45:00Z,26.0257,-81.7332,1.55,6.3,11111222 
NERRS,ioos:station:NOAA.NERRS:rkblhwq:1,2019-11-14T23:45:00Z,26.0257,-81.7332,1.47,6.3,11111222 
NERRS,ioos:station:NOAA.NERRS:rkblhwq:1,2019-11-15T00:45:00Z,26.0257,-81.7332,1.41,6.1,11111222 
NERRS,ioos:station:NOAA.NERRS:rkblhwq:1,2019-11-15T01:45:00Z,26.0257,-81.7332,1.39,5.8,11111222 
NERRS,ioos:station:NOAA.NERRS:rkblhwq:1,2019-11-15T02:45:00Z,26.0257,-81.7332,1.48,5.5,11111222 
NERRS,ioos:station:NOAA.NERRS:rkblhwq:1,2019-11-15T03:45:00Z,26.0257,-81.7332,1.6,5.6,11111222 
NERRS,ioos:station:NOAA.NERRS:rkblhwq:1,2019-11-15T04:45:00Z,26.0257,-81.7332,1.7,5.4,11111222 
NERRS,ioos:station:NOAA.NERRS:rkblhwq:1,2019-11-15T05:45:00Z,26.0257,-81.7332,1.78,5.3,11111222 
NERRS,ioos:station:NOAA.NERRS:rkblhwq:1,2019-11-15T06:45:00Z,26.0257,-81.7332,1.82,5.5,11111222 
NERRS,ioos:station:NOAA.NERRS:rkblhwq:1,2019-11-15T07:45:00Z,26.0257,-81.7332,1.83,5.5,11111222 
NERRS,ioos:station:NOAA.NERRS:rkblhwq:1,2019-11-15T08:45:00Z,26.0257,-81.7332,1.76,5.1,11111222 
NERRS,ioos:station:NOAA.NERRS:rkblhwq:1,2019-11-15T09:45:00Z,26.0257,-81.7332,1.65,5.3,11111222 
NERRS,ioos:station:NOAA.NERRS:rkblhwq:1,2019-11-15T10:45:00Z,26.0257,-81.7332,1.53,5.3,11111222 
NERRS,ioos:station:NOAA.NERRS:rkblhwq:1,2019-11-15T11:45:00Z,26.0257,-81.7332,1.38,5.3,11111222 
NERRS,ioos:station:NOAA.NERRS:rkblhwq:1,2019-11-15T12:45:00Z,26.0257,-81.7332,1.21,4.6,11111222 
NERRS,ioos:station:NOAA.NERRS:rkblhwq:1,2019-11-15T13:45:00Z,26.0257,-81.7332,1.07,4.2,11111222 
NERRS,ioos:station:NOAA.NERRS:rkblhwq:1,2019-11-15T14:45:00Z,26.0257,-81.7332,1.0,4.3,11111222 
NERRS,ioos:station:NOAA.NERRS:rkblhwq:1,2019-11-15T15:45:00Z,26.0257,-81.7332,1.08,4.8,11111222 
NERRS,ioos:station:NOAA.NERRS:rkblhwq:1,2019-11-15T16:45:00Z,26.0257,-81.7332,1.25,4.8,11111222 
NERRS,ioos:station:NOAA.NERRS:rkblhwq:1,2019-11-15T17:45:00Z,26.0257,-81.7332,1.4,5.0,11111222 
NERRS,ioos:station:NOAA.NERRS:rkblhwq:1,2019-11-15T18:45:00Z,26.0257,-81.7332,1.53,5.1,11111222 
NERRS,ioos:station:NOAA.NERRS:rkblhwq:1,2019-11-15T19:45:00Z,26.0257,-81.7332,1.63,5.1,11111222 
NERRS,ioos:station:NOAA.NERRS:rkblhwq:1,2019-11-15T21:45:00Z,26.0257,-81.7332,1.62,4.8,11111222 